When you browse on this site, cookies collect data to enhance your experience and personalize the content and advertising you see.
Visit our Privacy Policy to learn more. By continuing to use the site, you agree to this use of cookies and data.
  • In Austria
  • List of Countries
  • For 7 days
  • Water Temperature
  • Weather Map
  • News
  • Weather Widgets
  • user-avatar
    Login

    Hourly Weather Roatán Town

    Today, 18 August, Sunday

    Time Temperature Precipitation Wind Pressure Humidity
    00:00 +32°C° 0 mm 12 mps 758 mmHg 70%
    01:00 +31°C° 0 mm 12 mps 758 mmHg 71%
    02:00 +31°C° 0 mm 11 mps 758 mmHg 72%
    03:00 +31°C° 0 mm 11 mps 757 mmHg 73%
    04:00 +31°C° 0 mm 11 mps 757 mmHg 73%
    05:00 +31°C° 0 mm 11 mps 757 mmHg 74%
    06:00 +31°C° 0 mm 11 mps 757 mmHg 75%
    07:00 +31°C° 0 mm 10 mps 758 mmHg 73%
    08:00 +31°C° 0 mm 9 mps 758 mmHg 72%
    09:00 +31°C° 0 mm 9 mps 759 mmHg 70%
    10:00 +31°C° 0 mm 9 mps 759 mmHg 71%
    11:00 +31°C° 0 mm 8 mps 758 mmHg 71%
    12:00 +31°C° 0 mm 8 mps 758 mmHg 71%
    13:00 +31°C° 0 mm 9 mps 757 mmHg 71%
    14:00 +31°C° 0 mm 9 mps 757 mmHg 72%
    15:00 +32°C° 0 mm 10 mps 756 mmHg 73%
    16:00 +32°C° 0.1 mm 11 mps 756 mmHg 73%
    17:00 +32°C° 0.1 mm 11 mps 756 mmHg 73%
    18:00 +32°C° 0.1 mm 12 mps 756 mmHg 73%
    19:00 +32°C° 0.1 mm 12 mps 757 mmHg 73%
    20:00 +32°C° 0.1 mm 12 mps 757 mmHg 73%
    21:00 +32°C° 0.1 mm 12 mps 758 mmHg 72%
    22:00 +32°C° 0 mm 11 mps 758 mmHg 72%
    23:00 +31°C° 0 mm 10 mps 758 mmHg 72%

    Tomorrow, 19 August, Monday

    Time Temperature Precipitation Wind Pressure Humidity
    00:00 +31°C° 0 mm 9 mps 757 mmHg 72%
    01:00 +31°C° 0 mm 9 mps 757 mmHg 73%
    02:00 +31°C° 0 mm 9 mps 757 mmHg 74%
    03:00 +31°C° 0 mm 9 mps 756 mmHg 75%
    04:00 +31°C° 0 mm 9 mps 757 mmHg 72%
    05:00 +31°C° 0 mm 9 mps 757 mmHg 70%
    06:00 +31°C° 0 mm 9 mps 757 mmHg 67%
    07:00 +31°C° 0 mm 9 mps 757 mmHg 68%
    08:00 +31°C° 0 mm 9 mps 758 mmHg 68%
    09:00 +31°C° 0 mm 10 mps 758 mmHg 68%
    10:00 +31°C° 0 mm 9 mps 758 mmHg 68%
    11:00 +31°C° 0 mm 9 mps 758 mmHg 68%
    12:00 +31°C° 0 mm 9 mps 757 mmHg 68%
    13:00 +31°C° 0 mm 9 mps 757 mmHg 69%
    14:00 +31°C° 0 mm 10 mps 756 mmHg 70%
    15:00 +31°C° 0 mm 10 mps 756 mmHg 71%
    16:00 +31°C° 0.1 mm 10 mps 756 mmHg 72%
    17:00 +31°C° 0.1 mm 11 mps 756 mmHg 73%
    18:00 +31°C° 0.1 mm 11 mps 757 mmHg 74%
    19:00 +31°C° 0.3 mm 11 mps 757 mmHg 73%
    20:00 +31°C° 0.3 mm 11 mps 758 mmHg 73%
    21:00 +31°C° 0.3 mm 12 mps 758 mmHg 72%
    22:00 +31°C° 0 mm 11 mps 758 mmHg 74%
    23:00 +31°C° 0 mm 11 mps 758 mmHg 75%

    Day after tomorrow, 20 August, Tuesday

    Time Temperature Precipitation Wind Pressure Humidity
    00:00 +31°C° 0 mm 10 mps 757 mmHg 77%
    01:00 +31°C° 0 mm 10 mps 757 mmHg 77%
    02:00 +29°C° 0 mm 9 mps 757 mmHg 77%
    03:00 +29°C° 0 mm 9 mps 756 mmHg 77%
    04:00 +29°C° 0.5 mm 8 mps 757 mmHg 77%
    05:00 +29°C° 0.5 mm 8 mps 757 mmHg 77%
    06:00 +29°C° 0.5 mm 8 mps 757 mmHg 77%
    07:00 +29°C° 0.1 mm 7 mps 758 mmHg 76%
    08:00 +29°C° 0.1 mm 6 mps 758 mmHg 75%
    09:00 +29°C° 0.1 mm 5 mps 758 mmHg 74%
    10:00 +29°C° 0 mm 5 mps 758 mmHg 74%
    11:00 +30°C° 0 mm 4 mps 758 mmHg 73%
    12:00 +30°C° 0 mm 4 mps 757 mmHg 72%
    13:00 +30°C° 0 mm 5 mps 757 mmHg 74%
    14:00 +30°C° 0 mm 7 mps 756 mmHg 75%
    15:00 +32°C° 0 mm 8 mps 756 mmHg 77%
    16:00 +32°C° 0.1 mm 9 mps 756 mmHg 77%
    17:00 +32°C° 0.1 mm 9 mps 757 mmHg 78%
    18:00 +32°C° 0.1 mm 10 mps 757 mmHg 78%
    19:00 +32°C° 0 mm 10 mps 757 mmHg 78%
    20:00 +32°C° 0 mm 11 mps 758 mmHg 78%
    21:00 +32°C° 0 mm 11 mps 758 mmHg 78%
    22:00 +32°C° 0.1 mm 10 mps 758 mmHg 78%
    23:00 +32°C° 0.1 mm 10 mps 758 mmHg 78%

    21 August, Wednesday

    Time Temperature Precipitation Wind Pressure Humidity
    00:00 +32°C° 0.1 mm 9 mps 758 mmHg 78%
    01:00 +31°C° 0.4 mm 8 mps 758 mmHg 79%
    02:00 +30°C° 0.4 mm 7 mps 758 mmHg 79%
    03:00 +30°C° 0.4 mm 6 mps 757 mmHg 79%
    04:00 +30°C° 0.7 mm 5 mps 758 mmHg 79%
    05:00 +30°C° 0.7 mm 5 mps 758 mmHg 78%
    06:00 +30°C° 0.7 mm 5 mps 758 mmHg 78%
    07:00 +30°C° 0 mm 5 mps 759 mmHg 78%
    08:00 +30°C° 0 mm 5 mps 759 mmHg 78%
    09:00 +30°C° 0 mm 5 mps 759 mmHg 78%
    10:00 +30°C° 0 mm 5 mps 759 mmHg 78%
    11:00 +30°C° 0 mm 5 mps 759 mmHg 77%
    12:00 +32°C° 0 mm 5 mps 758 mmHg 76%
    13:00 +32°C° 0 mm 6 mps 758 mmHg 76%
    14:00 +32°C° 0 mm 7 mps 757 mmHg 76%
    15:00 +32°C° 0 mm 8 mps 757 mmHg 77%
    16:00 +32°C° 0 mm 9 mps 757 mmHg 78%
    17:00 +32°C° 0 mm 10 mps 757 mmHg 79%
    18:00 +32°C° 0 mm 11 mps 757 mmHg 80%
    19:00 +32°C° 0 mm 11 mps 758 mmHg 80%
    20:00 +32°C° 0 mm 11 mps 758 mmHg 80%
    21:00 +32°C° 0 mm 11 mps 759 mmHg 80%
    22:00 +32°C° 0 mm 11 mps 759 mmHg 79%
    23:00 +32°C° 0 mm 10 mps 759 mmHg 78%

    22 August, Thursday

    Time Temperature Precipitation Wind Pressure Humidity
    00:00 +32°C° 0 mm 10 mps 759 mmHg 78%
    01:00 +32°C° 0 mm 9 mps 758 mmHg 78%
    02:00 +32°C° 0 mm 9 mps 758 mmHg 77%
    03:00 +31°C° 0 mm 8 mps 758 mmHg 77%
    04:00 +31°C° 0 mm 8 mps 758 mmHg 77%
    05:00 +31°C° 0 mm 8 mps 758 mmHg 76%
    06:00 +30°C° 0 mm 7 mps 758 mmHg 76%
    07:00 +30°C° 0 mm 7 mps 758 mmHg 76%
    08:00 +30°C° 0 mm 7 mps 759 mmHg 76%
    09:00 +30°C° 0 mm 7 mps 759 mmHg 76%
    10:00 +30°C° 0 mm 7 mps 759 mmHg 75%
    11:00 +32°C° 0 mm 7 mps 759 mmHg 75%
    12:00 +32°C° 0 mm 7 mps 758 mmHg 75%
    13:00 +32°C° 0 mm 8 mps 758 mmHg 76%
    14:00 +32°C° 0 mm 8 mps 757 mmHg 77%
    15:00 +32°C° 0 mm 9 mps 757 mmHg 78%
    16:00 +32°C° 0 mm 9 mps 757 mmHg 78%
    17:00 +32°C° 0 mm 10 mps 757 mmHg 78%
    18:00 +32°C° 0 mm 10 mps 757 mmHg 78%
    19:00 +32°C° 0 mm 10 mps 758 mmHg 78%
    20:00 +32°C° 0 mm 10 mps 758 mmHg 79%
    21:00 +32°C° 0 mm 10 mps 759 mmHg 79%
    22:00 +31°C° 0 mm 10 mps 759 mmHg 79%
    23:00 +31°C° 0 mm 10 mps 759 mmHg 79%

    23 August, Friday

    Time Temperature Precipitation Wind Pressure Humidity
    00:00 +31°C° 0 mm 10 mps 758 mmHg 79%
    01:00 +31°C° 0 mm 10 mps 758 mmHg 79%
    02:00 +31°C° 0 mm 9 mps 758 mmHg 78%
    03:00 +31°C° 0 mm 9 mps 757 mmHg 78%
    04:00 +31°C° 0 mm 9 mps 758 mmHg 78%
    05:00 +31°C° 0 mm 9 mps 758 mmHg 78%
    06:00 +31°C° 0 mm 8 mps 758 mmHg 78%
    07:00 +31°C° 0 mm 8 mps 758 mmHg 77%
    08:00 +30°C° 0 mm 7 mps 759 mmHg 77%
    09:00 +30°C° 0 mm 7 mps 759 mmHg 76%
    10:00 +30°C° 0 mm 7 mps 759 mmHg 76%
    11:00 +30°C° 0 mm 7 mps 758 mmHg 76%
    12:00 +30°C° 0 mm 7 mps 758 mmHg 76%
    13:00 +30°C° 0 mm 7 mps 758 mmHg 77%
    14:00 +32°C° 0 mm 8 mps 757 mmHg 79%
    15:00 +32°C° 0 mm 8 mps 757 mmHg 80%
    16:00 +32°C° 0 mm 8 mps 757 mmHg 81%
    17:00 +31°C° 0 mm 8 mps 757 mmHg 82%
    18:00 +31°C° 0 mm 9 mps 757 mmHg 83%
    19:00 +31°C° 0 mm 9 mps 758 mmHg 82%
    20:00 +31°C° 0 mm 9 mps 758 mmHg 82%
    21:00 +31°C° 0 mm 9 mps 759 mmHg 81%
    22:00 +31°C° 0 mm 9 mps 758 mmHg 81%
    23:00 +31°C° 0 mm 9 mps 758 mmHg 82%
    Show more